GW7043 Weather Reports


time (UTC)temp
C
wind
direction
speed
KPH
gust
KPH
rain 1hr
cm
rain 24hr
cm
rain mn
cm
humidity
%
barometer
mb
20260504234742 23 183 4.8 6.4 0.00 0.00 0.00 37 1014.3
20260504234239 23 221 6.4 8.0 0.00 0.00 0.00 36 1014.3
20260504233735 23 175 3.2 8.0 0.00 0.00 0.00 36 1014.1
20260504233231 23 169 4.8 6.4 0.00 0.00 0.00 36 1014.3
20260504232729 23 186 6.4 8.0 0.00 0.00 0.00 35 1014.4
20260504232225 23 172 4.8 9.7 0.00 0.00 0.00 34 1014.4
20260504231722 23 196 4.8 12.9 0.00 0.00 0.00 34 1014.3
20260504231218 23 181 4.8 12.9 0.00 0.00 0.00 34 1014.4
20260504230714 23 201 4.8 8.0 0.00 0.00 0.00 34 1014.4
20260504230213 23 166 6.4 8.0 0.00 0.00 0.00 34 1014.4
20260504225712 23 211 6.4 6.4 0.00 0.00 0.00 35 1014.4
20260504225208 24 195 6.4 11.3 0.00 0.00 0.00 34 1014.8
20260504224705 24 189 8.0 11.3 0.00 0.00 0.00 32 1014.4
20260504224202 24 219 3.2 4.8 0.00 0.00 0.00 34 1014.6
20260504223658 24 208 4.8 11.3 0.00 0.00 0.00 34 1014.6
20260504223154 24 183 3.2 8.0 0.00 0.00 0.00 33 1014.5
20260504222651 24 180 4.8 8.0 0.00 0.00 0.00 33 1014.6
20260504222148 25 178 6.4 8.0 0.00 0.00 0.00 33 1014.5
20260504221645 25 214 8.0 12.9 0.00 0.00 0.00 32 1014.5
20260504221143 25 252 6.4 17.7 0.00 0.00 0.00 31 1014.5
20260504220638 25 222 9.7 9.7 0.00 0.00 0.00 33 1014.5
20260504220137 25 195 6.4 12.9 0.00 0.00 0.00 32 1014.4
20260504215632 25 151 4.8 6.4 0.00 0.00 0.00 31 1014.5
20260504215130 25 192 6.4 11.3 0.00 0.00 0.00 32 1014.3
20260504214626 25 226 6.4 9.7 0.00 0.00 0.00 34 1014.5
20260504214122 25 229 6.4 8.0 0.00 0.00 0.00 36 1014.5
20260504213619 25 201 4.8 8.0 0.00 0.00 0.00 33 1014.3
20260504213116 25 162 4.8 6.4 0.00 0.00 0.00 33 1014.5
20260504212612 25 168 3.2 4.8 0.00 0.00 0.00 34 1014.4
20260504212109 25 194 9.7 11.3 0.00 0.00 0.00 33 1014.3
20260504211606 25 180 4.8 6.4 0.00 0.00 0.00 34 1014.2
20260504211103 25 182 4.8 6.4 0.00 0.00 0.00 34 1014.5
20260504210600 25 180 3.2 6.4 0.00 0.00 0.00 32 1014.2
20260504210056 25 243 3.2 8.0 0.00 0.00 0.00 30 1014.5
20260504205554 25 156 6.4 8.0 0.00 0.00 0.00 32 1014.7
20260504205052 25 205 4.8 11.3 0.00 0.00 0.00 33 1014.7
20260504204550 25 189 3.2 9.7 0.00 0.00 0.00 33 1014.6
20260504204049 25 231 0.0 4.8 0.00 0.00 0.00 33 1014.7
20260504203547 25 186 1.6 6.4 0.00 0.00 0.00 31 1014.7
20260504203044 25 182 8.0 8.0 0.00 0.00 0.00 32 1014.7
20260504202539 25 259 0.0 6.4 0.00 0.00 0.00 31 1014.9
20260504202036 25 241 6.4 12.9 0.00 0.00 0.00 32 1014.9
20260504201533 25 180 6.4 9.7 0.00 0.00 0.00 34 1014.9
20260504201031 25 205 3.2 6.4 0.00 0.00 0.00 34 1014.9
20260504200527 25 204 6.4 11.3 0.00 0.00 0.00 33 1015.0
20260504200024 25 180 3.2 9.7 0.00 0.00 0.00 33 1015.1
20260504195520 25 221 8.0 9.7 0.00 0.00 0.00 34 1015.3
20260504195017 24 232 6.4 8.0 0.00 0.00 0.00 33 1015.2
20260504194513 24 205 8.0 8.0 0.00 0.00 0.00 33 1015.2
20260504194009 25 213 9.7 11.3 0.00 0.00 0.00 32 1015.3
20260504193506 25 157 4.8 6.4 0.00 0.00 0.00 32 1015.2
20260504193005 25 210 14.5 14.5 0.00 0.00 0.00 33 1015.4
20260504192502 25 180 3.2 4.8 0.00 0.00 0.00 34 1015.7
20260504192000 24 157 6.4 9.7 0.00 0.00 0.00 35 1015.6
20260504191458 25 163 4.8 9.7 0.00 0.00 0.00 34 1015.4
20260504190953 25 213 3.2 8.0 0.00 0.00 0.00 33 1015.5
20260504190449 25 147 4.8 8.0 0.00 0.00 0.00 32 1015.9
20260504185946 25 226 4.8 8.0 0.00 0.00 0.00 34 1015.9
20260504185443 25 229 9.7 9.7 0.00 0.00 0.00 35 1016.0
20260504184939 25 237 3.2 6.4 0.00 0.00 0.00 35 1016.0
20260504184435 25 167 6.4 9.7 0.00 0.00 0.00 35 1016.0
20260504183931 25 246 1.6 8.0 0.00 0.00 0.00 34 1016.1
20260504183428 25 219 3.2 8.0 0.00 0.00 0.00 34 1016.1
20260504182926 25 187 4.8 6.4 0.00 0.00 0.00 36 1016.3
20260504182423 25 219 6.4 8.0 0.00 0.00 0.00 36 1016.1
20260504181920 25 165 4.8 4.8 0.00 0.00 0.00 37 1016.4
20260504181417 25 229 3.2 6.4 0.00 0.00 0.00 38 1016.3
20260504180916 24 163 3.2 4.8 0.00 0.00 0.00 35 1016.5
20260504180414 23 168 6.4 8.0 0.00 0.00 0.00 37 1016.7
20260504175912 23 218 4.8 8.0 0.00 0.00 0.00 37 1016.8
20260504175409 23 221 6.4 14.5 0.00 0.00 0.00 36 1016.8
20260504174907 23 254 4.8 9.7 0.00 0.00 0.00 37 1016.8
20260504174404 23 139 1.6 8.0 0.00 0.00 0.00 38 1016.8
20260504173901 23 174 6.4 8.0 0.00 0.00 0.00 38 1017.0
20260504173357 23 232 4.8 6.4 0.00 0.00 0.00 38 1016.8
20260504172855 23 207 3.2 8.0 0.00 0.00 0.00 38 1017.1
20260504172351 23 218 4.8 9.7 0.00 0.00 0.00 38 1017.1
20260504171847 24 223 3.2 6.4 0.00 0.00 0.00 38 1017.0
20260504171344 23 195 3.2 6.4 0.00 0.00 0.00 39 1017.1
20260504170842 23 178 3.2 6.4 0.00 0.00 0.00 42 1017.0
20260504170338 23 182 3.2 4.8 0.00 0.00 0.00 40 1017.2
20260504160256 21 205 9.7 17.7 0.00 0.00 0.00 42 1017.7
20260504150722 20 240 1.6 6.4 0.00 0.00 0.00 44 1018.4
20260504150219 20 218 4.8 6.4 0.00 0.00 0.00 45 1018.6
20260504141148 16 184 6.4 8.0 0.00 0.00 0.00 60 1018.7
20260504140645 16 215 4.8 4.8 0.00 0.00 0.00 62 1018.7
20260504140140 16 229 3.2 4.8 0.00 0.00 0.00 61 1018.8
20260504130609 11 315 0.0 3.2 0.00 0.00 0.00 79 1018.5
20260504130105 11 325 0.0 1.6 0.00 0.00 0.00 82 1018.6
20260504110456 6 210 1.6 3.2 0.00 0.00 0.00 92 1017.8
20260504100418 5 212 3.2 3.2 0.00 0.00 0.00 92 1017.6
20260504081811 6 194 3.2 3.2 0.00 0.00 0.00 91 1018.0
20260504081309 6 192 3.2 3.2 0.00 0.00 0.00 91 1017.8
20260504080804 6 248 1.6 3.2 0.00 0.00 0.00 91 1018.0
20260504080301 6 243 3.2 3.2 0.00 0.00 0.00 91 1017.8
20260504070229 7 185 3.2 3.2 0.00 0.00 0.00 89 1018.1
20260504060149 7 204 1.6 3.2 0.00 0.00 0.00 88 1018.1
20260504050617 8 219 1.6 3.2 0.00 0.00 0.00 86 1018.5
20260504050114 8 202 3.2 3.2 0.00 0.00 0.00 86 1018.9
20260504045611 8 206 3.2 3.2 0.00 0.00 0.00 86 1018.7
20260504045106 8 187 3.2 3.2 0.00 0.00 0.00 85 1018.6
20260504044604 9 181 0.0 3.2 0.00 0.00 0.00 84 1018.8
20260504044100 9 186 1.6 1.6 0.00 0.00 0.00 84 1018.8
20260504043558 10 207 0.0 1.6 0.00 0.00 0.00 82 1018.9
20260504043055 10 200 1.6 3.2 0.00 0.00 0.00 83 1018.9
20260504042552 10 184 1.6 3.2 0.00 0.00 0.00 82 1018.9
20260504042049 10 223 3.2 3.2 0.00 0.00 0.00 82 1018.9
20260504041545 10 186 1.6 3.2 0.00 0.00 0.00 82 1018.8
20260504041041 10 190 1.6 1.6 0.00 0.00 0.00 81 1018.8
20260504040539 10 185 1.6 3.2 0.00 0.00 0.00 81 1018.8
20260504040035 10 232 0.0 3.2 0.00 0.00 0.00 81 1018.8
20260504035532 10 224 0.0 3.2 0.00 0.00 0.00 81 1018.9
20260504035028 10 214 3.2 3.2 0.00 0.00 0.00 82 1018.9
20260504034526 10 179 1.6 3.2 0.00 0.00 0.00 82 1018.9
20260504034023 10 203 3.2 3.2 0.00 0.00 0.00 82 1018.8
20260504033521 10 174 1.6 1.6 0.00 0.00 0.00 81 1018.9
20260504033018 10 184 1.6 3.2 0.00 0.00 0.00 80 1018.9
20260504032515 10 215 3.2 3.2 0.00 0.00 0.00 79 1018.8
20260504032012 11 251 0.0 3.2 0.00 0.00 0.00 77 1018.8
20260504031509 11 219 3.2 3.2 0.00 0.00 0.00 77 1018.9
20260504031005 11 216 1.6 3.2 0.00 0.00 0.00 78 1018.9
20260504030503 11 214 3.2 3.2 0.00 0.00 0.00 78 1018.7
20260504025958 11 223 1.6 3.2 0.00 0.00 0.00 78 1018.8
20260504025455 11 203 3.2 3.2 0.00 0.00 0.00 77 1018.5
20260504024952 11 192 1.6 3.2 0.00 0.00 0.00 76 1018.6
20260504024449 11 188 3.2 3.2 0.00 0.00 0.00 75 1018.7
20260504023946 11 235 1.6 3.2 0.00 0.00 0.00 73 1018.7
20260504023443 12 204 1.6 3.2 0.00 0.00 0.00 73 1018.7
20260504022938 12 210 3.2 3.2 0.00 0.00 0.00 71 1018.6
20260504022435 12 231 3.2 3.2 0.00 0.00 0.00 71 1018.6
20260504021931 12 204 0.0 3.2 0.00 0.00 0.00 71 1018.4
20260504021429 12 203 3.2 3.2 0.00 0.00 0.00 68 1018.3
20260504020926 12 274 0.0 3.2 0.00 0.00 0.00 66 1018.4
20260504020422 12 201 3.2 3.2 0.00 0.00 0.00 66 1018.3
20260504015919 12 238 0.0 3.2 0.00 0.00 0.00 65 1018.3
20260504015415 13 223 3.2 3.2 0.00 0.00 0.00 65 1018.0
20260504014911 13 263 1.6 3.2 0.00 0.00 0.00 64 1018.1
20260504014407 13 204 3.2 3.2 0.00 0.00 0.00 64 1018.0
20260504013904 13 233 3.2 3.2 0.00 0.00 0.00 62 1017.8
20260504013403 13 258 0.0 3.2 0.00 0.00 0.00 63 1017.8
20260504012859 13 232 0.0 3.2 0.00 0.00 0.00 59 1017.9
20260504012357 13 252 1.6 3.2 0.00 0.00 0.00 60 1017.3
20260504011854 14 219 1.6 4.8 0.00 0.00 0.00 63 1017.5
20260504011350 14 230 1.6 3.2 0.00 0.00 0.00 58 1017.7
20260504010846 14 251 3.2 4.8 0.00 0.00 0.00 57 1017.6
20260504010342 15 249 3.2 3.2 0.00 0.00 0.00 61 1017.5
20260504005839 15 189 1.6 3.2 0.00 0.00 0.00 61 1017.6
20260504005336 15 211 3.2 3.2 0.00 0.00 0.00 58 1017.5
20260504004833 16 334 3.2 3.2 0.00 0.00 0.00 59 1017.3
20260504004331 16 218 3.2 3.2 0.00 0.00 0.00 56 1017.7
20260504003827 16 253 0.0 1.6 0.00 0.00 0.00 52 1017.2
20260504003324 16 248 0.0 0.0 0.00 0.00 0.00 50 1017.2
20260504002821 17 204 0.0 3.2 0.00 0.00 0.00 52 1017.1
20260504002317 17 205 3.2 3.2 0.00 0.00 0.00 51 1017.1
20260504001815 17 226 3.2 3.2 0.00 0.00 0.00 48 1017.1
20260504001312 18 285 0.0 1.6 0.00 0.00 0.00 46 1017.0
20260504000809 18 184 0.0 3.2 0.00 0.00 0.00 46 1017.1
20260504000306 18 224 0.0 1.6 0.00 0.00 0.00 41 1017.1
20260503235804 19 193 1.6 3.2 0.00 0.00 0.00 40 1016.9
20260503235301 19 231 1.6 1.6 0.00 0.00 0.00 38 1017.1